sat.trackr.live / text

‹ back to catalog

STARLINK-34312

NORAD 64711 · 2025-142R

PAYLOAD ACTIVE UNKNOWN

§ Identity

Operator
Country
US
Launch date
2025-06-28
Launch site
AFWTR
Launch vehicle
Mass (kg)
RCS (m²)

Purposes: comms

External: N2YO · Heavens-Above · Gunter

§ Orbital elements

Epoch: 2026-09-20T04:14:51.487584Z

Period
94.14 min
Inclination
70.0012°
Eccentricity
0.0003487
Mean motion
15.29591762 rev/d
Perigee alt
474.6 km
Apogee alt
479.4 km
Semi-major
6,855.2 km
B*
3.4745e-4
RAAN
181.6672°
Arg perigee
266.4753°
Mean anomaly
93.6023°
Rev number
6,884

§ Raw data

STARLINK-343121 64711U 25142R   26263.17698481  .00009877  00000+0  34745-3 0  99922 64711  70.0012 181.6672 0003487 266.4753  93.6023 15.29591762 68843

JSON: /api/v1/satellites/64711 · /tle

For live sub-satellite position, see the globe view (requires WebGL).

§ Visibility from observer

Set your observer location to see the next 7 days of passes ≥ 10°. The values pass through the URL so the page stays shareable.

No JS? Fill the form by hand. The geolocation button needs JavaScript.